[[{"header":{"parameterUnit":"m.s-1","parameterCategory":2,"la1":30.2991,"la2":30.254,"lo1":-89.0895,"lo2":-89.0444,"dy":0.0017,"dx":0.0017,"nx":28,"ny":28,"refTime":"2025-03-28T21:00:00:Z","depth":"0","parameterNumber":2,"parameterNumberName":"U-component_of_CURRENTS"},"data":[0,0,0,0,0,0,0,0,0,0,0,0,0,0,0,0,0,0,0,0,0,0,0,0,0,0,0,0,0,0,0,0,0,0,0,0,0,0,0,0,0,0,0,0,0,0,0,0,0,0,0,0,0,0,0,0,0,0,0.2284,0.2285,0,0.2339,0.2339,0.2339,0.2331,0.2331,0.2331,0.2331,0.231,0.2309,0.2309,0,0,0,0,0,0,0,0,0,0,0,0,0,0.2163,0.2164,0.2283,0.2285,0.2286,0.2339,0.2339,0.2339,0.2331,0.2331,0.2331,0.2331,0.231,0.2309,0.2309,0,0,0,0,0,0,0,0,0,0,0,0,0,0.2209,0.2165,0.2283,0.2294,0.2296,0.2339,0.2339,0.2339,0.2331,0.2331,0.2331,0.233,0.231,0.231,0.2309,0.2313,0,0,0.2307,0.2307,0,0,0,0,0,0,0,0,0.2207,0.2213,0.2291,0.2294,0.2296,0.2334,0.2289,0.2329,0.2332,0.231,0.2331,0.233,0.2316,0.2315,0.2317,0.2312,0.2311,0.2307,0.2307,0.2307,0.2307,0,0,0,0,0,0,0,0.2203,0.221,0.2298,0.2293,0.2296,0.2294,0.2299,0.2296,0.2307,0.2312,0.2314,0.2332,0.2316,0.2317,0.2316,0.2311,0.2307,0.2307,0.2307,0.2307,0.2327,0.2327,0,0,0,0,0,0,0.2213,0.2208,0.2296,0.23,0.2258,0.2297,0.2303,0.2316,0.2309,0.231,0.2332,0.2331,0.2318,0.2317,0.2315,0.2334,0.2307,0.2306,0.2306,0.2326,0.2327,0.2328,0,0,0,0,0,0,0.221,0.222,0.2294,0.2261,0.2271,0.23,0.2315,0.2318,0.2322,0.2326,0.2324,0.2334,0.2318,0.2316,0.2323,0.2332,0.2306,0.2306,0.2325,0.2326,0.2327,0.2361,0,0,0,0,0,0,0.2206,0.2218,0.2222,0.2262,0.2274,0.2314,0.2316,0.2319,0.2337,0.2336,0.2328,0.2326,0.2318,0.2324,0.2322,0.2331,0.2305,0.2324,0.2325,0.2327,0.2359,0.2363,0.2367,0,0,0,0,0,0.2201,0.2205,0.2222,0.2233,0.2281,0.2315,0.2319,0.2334,0.2338,0.2336,0.2342,0.2326,0.2332,0.2324,0.2322,0.2331,0.2323,0.2325,0.2327,0.2357,0.2363,0.2367,0,0,0,0,0,0,0.2142,0.2207,0.2225,0.2245,0.228,0.2316,0.2319,0.2337,0.2341,0.2339,0.2337,0.2335,0.2346,0.2336,0.2327,0.2342,0.2325,0.2326,0.2349,0.2354,0.2358,0.2373,0.2305,0,0,0,0,0,0.2138,0.2162,0.2219,0.2233,0.2251,0.2287,0.2302,0.2319,0.2337,0.2338,0.2339,0.2342,0.2353,0.2351,0.2353,0.2359,0.2382,0.2364,0.2368,0.2371,0.2384,0.2438,0.2449,0.2334,0.2334,0.2334,0,0,0.212,0.2159,0.2172,0.2223,0.2248,0.228,0.2292,0.2317,0.2343,0.2335,0.2352,0.2356,0.2359,0.2371,0.2374,0.2362,0.2417,0.2374,0.2376,0.2388,0.2441,0.2453,0.2463,0.2335,0.2335,0.2335,0,0,0.2101,0.2131,0.2149,0.2184,0.2237,0.2265,0.2276,0.2319,0.2332,0.2358,0.2366,0.2382,0.2383,0.2397,0.2404,0.2432,0.2441,0.2425,0.2454,0.2506,0.2517,0.2526,0.2575,0.2589,0.2423,0.2423,0.2423,0,0.2076,0.2114,0.2154,0.2187,0.222,0.2262,0.2291,0.2316,0.2355,0.2375,0.2363,0.2406,0.2401,0.2442,0.2451,0.2442,0.2474,0.2433,0.2513,0.2523,0.2532,0.258,0.2594,0.2425,0.2425,0.2425,0.2424,0,0.2087,0.2115,0.2126,0.2189,0.2223,0.2252,0.2311,0.2337,0.2361,0.2392,0.2434,0.2442,0.247,0.2468,0.2467,0.2527,0.2531,0.2516,0.2502,0.2546,0.2593,0.2608,0.2428,0.2427,0.2426,0.2426,0,0,0.2041,0.2119,0.2124,0.2155,0.2232,0.226,0.2311,0.2372,0.241,0.244,0.249,0.2513,0.2526,0.2537,0.2541,0.2581,0.2666,0.2576,0.2578,0.2629,0.2792,0.2795,0.2811,0.2669,0.2672,0.2674,0.2801,0,0.2039,0.209,0.2137,0.2185,0.2218,0.2282,0.2326,0.2387,0.2432,0.2485,0.2522,0.256,0.2551,0.2567,0.2612,0.2655,0.2705,0.2634,0.2739,0.2743,0.2743,0.2828,0.272,0.2825,0.2815,0.2818,0.282,0,0.2043,0.2079,0.2119,0.2197,0.2217,0.2249,0.2338,0.2389,0.2479,0.2513,0.2573,0.2604,0.2679,0.2654,0.2774,0.2732,0.2771,0.2799,0.2805,0.2808,0.2773,0.2779,0.2851,0.2795,0.2842,0.284,0.2838,0,0.2001,0.2072,0.2098,0.2127,0.2214,0.2242,0.2297,0.2388,0.2439,0.2538,0.2582,0.267,0.2719,0.2791,0.2865,0.2826,0.2999,0.2946,0.299,0.299,0.292,0.291,0.2952,0.3039,0.3039,0.3039,0.3038,0,0.1989,0.2012,0.2075,0.2091,0.2131,0.2212,0.2265,0.2337,0.2437,0.25,0.2591,0.2667,0.2757,0.2862,0.291,0.3019,0.3044,0.3028,0.3037,0.2929,0.2918,0.2881,0.2846,0.3043,0.3042,0.3041,0.304,0,0.1935,0.1978,0.2007,0.208,0.2106,0.2135,0.224,0.2288,0.2393,0.2483,0.2519,0.2683,0.2837,0.2939,0.3071,0.3079,0.3099,0.32,0.3071,0.3063,0.3016,0.2986,0.2939,0.2848,0.3259,0.326,0.3261,0,0.1912,0.1918,0.1975,0.1992,0.2019,0.2077,0.2124,0.2244,0.2306,0.2495,0.2542,0.2728,0.2869,0.3094,0.3161,0.3278,0.3164,0.3206,0.3105,0.3034,0.3008,0.2867,0.2781,0.3025,0.3024,0.3023,0.3022,0,0.1861,0.1869,0.189,0.1925,0.1961,0.2011,0.2092,0.2135,0.2284,0.2391,0.2573,0.2712,0.2949,0.3056,0.3205,0.3241,0.3053,0.319,0.3147,0.2871,0.269,0.2597,0.2921,0.3014,0.3015,0.3016,0.3016,0.3016,0.181,0.1803,0.1825,0.1857,0.19,0.1946,0.197,0.2074,0.2183,0.2335,0.2517,0.2693,0.2883,0.3107,0.313,0.3091,0.3045,0.2989,0.2976,0.2852,0.2709,0.3028,0.3108,0.311,0.3111,0.3112,0.3113,0,0.1742,0.175,0.177,0.18,0.182,0.1871,0.1948,0.197,0.207,0.225,0.2412,0.2638,0.2772,0.2895,0.297,0.2887,0.2713,0.2807,0.257,0.2506,0.2832,0.2767,0.2739,0.274,0.274,0.274,0.274,0.274,0.1705,0.1693,0.1704,0.1714,0.174,0.1749,0.1777,0.1831,0.1935,0.2106,0.2246,0.2397,0.2679,0.2852,0.2819,0.2738,0.251,0.2413,0.2398,0.2632,0.2646,0.2659,0.259,0.2526,0.2525,0.1939,0.1935,0.1932]},{"header":{"parameterUnit":"m.s-1","parameterCategory":2,"la1":30.2991,"la2":30.254,"lo1":-89.0895,"lo2":-89.0444,"dy":0.0017,"dx":0.0017,"nx":28,"ny":28,"refTime":"2025-03-28T21:00:00:Z","depth":"0","parameterNumber":3,"parameterNumberName":"V-component_of_CURRENTS"},"data":[0,0,0,0,0,0,0,0,0,0,0,0,0,0,0,0,0,0,0,0,0,0,0,0,0,0,0,0,0,0,0,0,0,0,0,0,0,0,0,0,0,0,0,0,0,0,0,0,0,0,0,0,0,0,0,0,0,0,0.0121,0.012,0,0.0068,0.0067,0.0066,0.0026,0.0026,0.0026,0.0026,-0.0038,-0.004,-0.0041,0,0,0,0,0,0,0,0,0,0,0,0,0,0.0155,0.0155,0.0121,0.012,0.012,0.0068,0.0067,0.0066,0.0026,0.0026,0.0026,0.0026,-0.0038,-0.0039,-0.0041,0,0,0,0,0,0,0,0,0,0,0,0,0,0.0123,0.0155,0.0121,0.0095,0.0093,0.0068,0.0067,0.0066,0.0026,0.0026,0.0026,0.0026,-0.0037,-0.0039,-0.0042,-0.0051,0,0,-0.0049,-0.005,0,0,0,0,0,0,0,0,0.0125,0.0122,0.01,0.0097,0.0094,0.0055,0.0056,0.0027,0.0027,0.0049,0.0026,0.0026,-0.0006,-0.0011,-0.0023,-0.0054,-0.0057,-0.0049,-0.005,-0.0051,-0.0052,0,0,0,0,0,0,0,0.0127,0.0124,0.0098,0.0099,0.0096,0.0075,0.0071,0.005,0.0022,0.0047,0.0045,0.0042,-0.0008,-0.0021,-0.0025,-0.0058,-0.0049,-0.0051,-0.0052,-0.0053,-0.015,-0.0151,0,0,0,0,0,0,0.014,0.0126,0.0099,0.0096,0.0112,0.0075,0.007,0.0066,0.0022,0.0016,0.0043,0.0041,-0.0017,-0.0022,-0.0028,-0.0065,-0.0051,-0.0053,-0.0055,-0.0148,-0.015,-0.0151,0,0,0,0,0,0,0.0141,0.0138,0.0102,0.0112,0.0106,0.0076,0.0071,0.0065,0.0052,0.0019,0.0012,0.0036,-0.0017,-0.0024,-0.006,-0.0067,-0.0054,-0.0057,-0.0147,-0.0149,-0.015,-0.0124,0,0,0,0,0,0,0.0142,0.0139,0.0135,0.0112,0.0106,0.0085,0.0072,0.0065,0.0052,0.0049,0.0011,0.0005,-0.0018,-0.0056,-0.0062,-0.007,-0.0058,-0.0146,-0.0148,-0.015,-0.0123,-0.0125,-0.0126,0,0,0,0,0,0.0144,0.0143,0.0136,0.0132,0.0104,0.0085,0.0079,0.0056,0.0052,0.0044,0.0011,0.0006,-0.0075,-0.0059,-0.0065,-0.0074,-0.0145,-0.0147,-0.015,-0.0123,-0.0124,-0.0126,0,0,0,0,0,0,0.0156,0.0139,0.013,0.0124,0.0105,0.0079,0.007,0.0059,0.0028,0.0025,-0.0005,-0.0014,-0.005,-0.0069,-0.0051,-0.0112,-0.0112,-0.0116,-0.0089,-0.0091,-0.0092,-0.0059,-0.006,0,0,0,0,0,0.0158,0.0155,0.0133,0.0129,0.012,0.0097,0.0086,0.0073,0.0046,0.0033,0.0006,-0.0029,-0.0066,-0.0083,-0.0116,-0.0143,-0.0136,-0.0156,-0.0157,-0.0158,-0.0139,-0.0138,-0.0136,-0.016,-0.016,-0.016,0,0,0.0164,0.0154,0.0152,0.0132,0.0115,0.0105,0.0089,0.0076,0.0068,0.0031,0.0007,-0.0031,-0.0075,-0.0113,-0.013,-0.0128,-0.0152,-0.0161,-0.0161,-0.0141,-0.014,-0.0137,-0.0135,-0.0162,-0.0161,-0.0161,0,0,0.0175,0.0162,0.0161,0.0147,0.0127,0.0112,0.0112,0.0085,0.007,0.0042,0.0008,-0.0033,-0.0081,-0.0117,-0.0141,-0.0167,-0.0158,-0.0183,-0.0158,-0.0158,-0.0155,-0.0152,-0.0146,-0.0143,-0.0182,-0.0182,-0.0182,0,0.018,0.0178,0.0157,0.015,0.0146,0.0119,0.0119,0.0097,0.0063,0.0057,0.0037,-0.004,-0.0082,-0.0123,-0.014,-0.0166,-0.0157,-0.0145,-0.0155,-0.0152,-0.015,-0.0145,-0.0141,-0.0181,-0.0181,-0.0181,-0.0182,0,0.0188,0.0184,0.0183,0.0168,0.0158,0.0154,0.0129,0.0116,0.0099,0.0079,0.0039,-0.0026,-0.0065,-0.0098,-0.0127,-0.0141,-0.0138,-0.0154,-0.0141,-0.0145,-0.0141,-0.0137,-0.018,-0.018,-0.0181,-0.0181,0,0,0.0213,0.0193,0.0194,0.0197,0.0172,0.017,0.0157,0.0144,0.015,0.0096,0.0095,0.0008,-0.0016,-0.0045,-0.0094,-0.0105,-0.0097,-0.0115,-0.0116,-0.0089,-0.008,-0.0111,-0.0111,-0.0104,-0.0103,-0.0103,-0.0085,0,0.0228,0.023,0.0215,0.0224,0.0224,0.0204,0.0201,0.0185,0.0164,0.0153,0.0087,0.0059,0.0001,-0.0018,-0.004,-0.0083,-0.0086,-0.0099,-0.0097,-0.0097,-0.0107,-0.0107,-0.0112,-0.0099,-0.0082,-0.0082,-0.0081,0,0.0245,0.0246,0.0255,0.0265,0.0265,0.0264,0.0273,0.0267,0.024,0.0223,0.0183,0.0142,0.0094,0.0053,0.0,0.0001,-0.0028,-0.006,-0.006,-0.0089,-0.0122,-0.0094,-0.0094,-0.0236,-0.0077,-0.0077,-0.0077,0,0.0282,0.0281,0.0297,0.0295,0.0291,0.03,0.0302,0.0288,0.0301,0.027,0.0275,0.0212,0.0188,0.0138,0.006,0.0043,0.0021,-0.0014,-0.0066,-0.0068,-0.0072,-0.0076,-0.0188,-0.0024,-0.0024,-0.0024,-0.0024,0,0.031,0.0324,0.0315,0.0322,0.0354,0.0338,0.0371,0.0362,0.0362,0.039,0.0316,0.033,0.0215,0.018,0.0104,0.0031,0.0057,-0.0048,-0.0063,-0.0067,-0.0071,-0.0194,-0.0283,-0.0023,-0.0023,-0.0023,-0.0023,0,0.0345,0.0338,0.0356,0.036,0.0368,0.039,0.042,0.0447,0.0436,0.047,0.0468,0.043,0.0387,0.0274,0.0197,0.0094,-0.0064,-0.0006,-0.0004,-0.002,-0.0224,-0.0311,-0.043,-0.0492,-0.0064,-0.0065,-0.0065,0,0.0363,0.0373,0.0388,0.041,0.0412,0.0442,0.0473,0.0479,0.0515,0.0544,0.0574,0.0544,0.0555,0.041,0.0224,0.0086,-0.0053,-0.0035,-0.0085,-0.0229,-0.0337,-0.0404,-0.0453,-0.0079,-0.0079,-0.008,-0.008,0,0.0397,0.0398,0.0413,0.0455,0.0488,0.0535,0.0579,0.0625,0.0649,0.0708,0.0793,0.0815,0.0654,0.052,0.0279,0.0152,-0.0163,-0.005,-0.0196,-0.0353,-0.0436,-0.0503,-0.0097,-0.0084,-0.0084,-0.0084,-0.0083,-0.0083,0.0423,0.0442,0.0462,0.0505,0.0553,0.0628,0.0691,0.0768,0.0872,0.0998,0.0988,0.1075,0.0793,0.0476,0.0254,-0.0181,-0.018,-0.0301,-0.039,-0.044,-0.0526,-0.0132,-0.0147,-0.0147,-0.0147,-0.0147,-0.0147,0,0.045,0.0474,0.0517,0.0572,0.0639,0.0656,0.0767,0.0862,0.1026,0.1167,0.128,0.1215,0.0859,0.046,-0.0122,-0.0442,-0.0571,-0.0629,-0.0727,-0.0756,-0.0392,-0.042,-0.05,-0.05,-0.05,-0.05,-0.0499,-0.0499,0.0466,0.0505,0.0524,0.0631,0.0687,0.0802,0.0881,0.1049,0.1185,0.142,0.1515,0.1551,0.1238,0.0145,-0.0589,-0.0773,-0.1007,-0.1074,-0.1172,-0.0938,-0.0914,-0.0892,-0.0939,-0.1126,-0.1127,-0.1489,-0.1493,-0.1496]}],[{"header":{"parameterUnit":"m.s-1","parameterCategory":2,"la1":30.2991,"la2":30.254,"lo1":-89.0895,"lo2":-89.0444,"dy":0.0017,"dx":0.0017,"nx":28,"ny":28,"refTime":"2025-03-28T21:00:00:Z","depth":"2","parameterNumber":2,"parameterNumberName":"U-component_of_CURRENTS"},"data":[0,0,0,0,0,0,0,0,0,0,0,0,0,0,0,0,0,0,0,0,0,0,0,0,0,0,0,0,0,0,0,0,0,0,0,0,0,0,0,0,0,0,0,0,0,0,0,0,0,0,0,0,0,0,0,0,0,0,0.2142,0.2144,0,0.2225,0.2225,0.2226,0.2208,0.2208,0.2207,0.2207,0.2178,0.2178,0.2178,0,0,0,0,0,0,0,0,0,0,0,0,0,0.1983,0.1985,0.2142,0.2144,0.2146,0.2225,0.2225,0.2226,0.2209,0.2208,0.2207,0.2207,0.2178,0.2178,0.2178,0,0,0,0,0,0,0,0,0,0,0,0,0,0.2047,0.1985,0.2142,0.2156,0.2158,0.2225,0.2225,0.2226,0.2209,0.2208,0.2207,0.2206,0.2178,0.2178,0.2178,0.219,0,0,0.2176,0.2176,0,0,0,0,0,0,0,0,0.2043,0.2051,0.2151,0.2155,0.2158,0.2216,0.216,0.2212,0.2209,0.2178,0.2207,0.2206,0.2188,0.2187,0.219,0.2188,0.2187,0.2176,0.2176,0.2176,0.2176,0,0,0,0,0,0,0,0.2039,0.2048,0.2164,0.2154,0.2158,0.2164,0.217,0.2169,0.2175,0.218,0.2182,0.221,0.2188,0.219,0.2189,0.2187,0.2176,0.2176,0.2175,0.2175,0.224,0.2241,0,0,0,0,0,0,0.2052,0.2044,0.2161,0.2167,0.211,0.2168,0.2175,0.2189,0.2178,0.218,0.221,0.2209,0.2192,0.219,0.2188,0.2223,0.2176,0.2175,0.2175,0.2238,0.224,0.2242,0,0,0,0,0,0,0.2047,0.2061,0.2158,0.2117,0.2131,0.2172,0.2188,0.2191,0.2209,0.2204,0.2201,0.2227,0.2191,0.2188,0.2212,0.2221,0.2175,0.2175,0.2235,0.2238,0.2241,0.2279,0,0,0,0,0,0,0.2042,0.2058,0.2067,0.2118,0.2134,0.2207,0.219,0.2194,0.2232,0.223,0.2218,0.2213,0.219,0.2213,0.2212,0.2219,0.2174,0.2233,0.2237,0.224,0.2275,0.2283,0.229,0,0,0,0,0,0.2036,0.2059,0.2066,0.2081,0.2146,0.221,0.2218,0.2237,0.2234,0.2247,0.2249,0.2214,0.2235,0.2215,0.2212,0.222,0.2231,0.2235,0.224,0.2272,0.2282,0.2289,0,0,0,0,0,0,0.1989,0.2062,0.2071,0.2112,0.2162,0.2211,0.2235,0.2251,0.2264,0.2259,0.2242,0.2239,0.2261,0.2249,0.2227,0.2254,0.2227,0.2231,0.2252,0.2261,0.2268,0.2271,0.2174,0,0,0,0,0,0.1988,0.2021,0.209,0.212,0.2151,0.2194,0.2223,0.224,0.2268,0.2273,0.2267,0.2267,0.2278,0.2277,0.2279,0.2295,0.2309,0.2302,0.2309,0.2314,0.232,0.2371,0.2383,0.2257,0.2257,0.2257,0,0,0.1975,0.2024,0.2039,0.2113,0.215,0.2196,0.2206,0.2259,0.2284,0.2267,0.2287,0.2293,0.2292,0.2309,0.2317,0.2298,0.2361,0.232,0.2325,0.2327,0.2377,0.2389,0.24,0.226,0.2259,0.2259,0,0,0.1982,0.2016,0.205,0.2098,0.2175,0.2204,0.2227,0.2284,0.2296,0.2331,0.2327,0.2349,0.2353,0.2358,0.2361,0.2416,0.2401,0.2413,0.2441,0.2491,0.2501,0.2511,0.255,0.2562,0.241,0.241,0.241,0,0.1961,0.2017,0.2069,0.2121,0.2162,0.2212,0.2255,0.2283,0.2333,0.235,0.234,0.2384,0.2377,0.2415,0.2429,0.2428,0.2455,0.2401,0.2499,0.2508,0.2517,0.2555,0.2568,0.2412,0.2412,0.2412,0.2411,0,0.2006,0.2043,0.2074,0.2147,0.2193,0.2242,0.2301,0.2332,0.2354,0.2379,0.2426,0.2435,0.246,0.2463,0.2457,0.2518,0.2517,0.2505,0.2472,0.2532,0.2568,0.2581,0.2415,0.2415,0.2414,0.2413,0,0,0.1972,0.208,0.2087,0.2119,0.2211,0.2252,0.2304,0.2369,0.2402,0.2438,0.2483,0.2509,0.2522,0.253,0.2534,0.2571,0.2652,0.2565,0.2566,0.2594,0.2767,0.2689,0.2696,0.266,0.2663,0.2665,0.2768,0,0.1986,0.2068,0.2123,0.2182,0.2228,0.2287,0.233,0.2388,0.2432,0.2482,0.2517,0.2555,0.2547,0.2563,0.2605,0.2645,0.2688,0.2625,0.2713,0.2715,0.2631,0.2709,0.2515,0.2584,0.278,0.2783,0.2784,0,0.2013,0.2065,0.2125,0.2202,0.2227,0.2262,0.2343,0.2393,0.2477,0.2511,0.257,0.2599,0.267,0.2647,0.2756,0.272,0.275,0.2774,0.2779,0.27,0.2662,0.2556,0.26,0.2806,0.2804,0.2802,0.2801,0,0.1971,0.2064,0.2104,0.2134,0.2229,0.2255,0.2308,0.2393,0.244,0.2537,0.2579,0.2663,0.2711,0.2776,0.2839,0.2805,0.2958,0.2912,0.2873,0.2868,0.2716,0.2692,0.2992,0.2992,0.2991,0.2991,0.2991,0,0.1969,0.1999,0.2082,0.2104,0.2146,0.2227,0.2278,0.2346,0.2442,0.2503,0.259,0.2659,0.2749,0.2842,0.2881,0.2933,0.3,0.2897,0.2897,0.2724,0.2701,0.2895,0.2883,0.2995,0.2994,0.2993,0.2993,0,0.1914,0.1973,0.2016,0.21,0.2125,0.2155,0.2255,0.2299,0.2401,0.2489,0.2524,0.2677,0.2812,0.2903,0.302,0.2977,0.3036,0.3035,0.2822,0.2793,0.2895,0.2884,0.2983,0.2982,0.298,0.2979,0.2978,0,0.1893,0.1913,0.1988,0.2009,0.2042,0.21,0.2143,0.2258,0.2316,0.2498,0.2541,0.2708,0.2821,0.2977,0.2969,0.3027,0.3079,0.2819,0.2699,0.2909,0.2899,0.289,0.288,0.2523,0.2518,0.2515,0.2512,0,0.1844,0.1867,0.1902,0.1946,0.1984,0.2034,0.211,0.215,0.2295,0.2386,0.2542,0.2654,0.281,0.2789,0.2844,0.2839,0.2787,0.2738,0.3049,0.2542,0.2479,0.2468,0.2473,0.2478,0.2481,0.2483,0.2485,0.2487,0.1793,0.18,0.1846,0.1882,0.1926,0.1969,0.1988,0.2084,0.2175,0.2273,0.2426,0.2497,0.2556,0.2542,0.2516,0.2479,0.2646,0.2498,0.2508,0.2523,0.2438,0.2374,0.2338,0.234,0.2342,0.2344,0.2346,0,0.1728,0.1759,0.1788,0.1825,0.1842,0.1895,0.1964,0.1976,0.2052,0.2123,0.2209,0.2058,0.209,0.2181,0.2077,0.2065,0.203,0.1981,0.1922,0.196,0.1992,0.1877,0.163,0.1627,0.1625,0.1622,0,0,0.1699,0.171,0.173,0.1736,0.1762,0.1765,0.1788,0.1824,0.1861,0.1825,0.1799,0.1914,0.2072,0.1768,0.1777,0.1692,0.1797,0.1631,0.2217,0.2184,0.2212,0.2318,0.2187,0,0,0,0,0]},{"header":{"parameterUnit":"m.s-1","parameterCategory":2,"la1":30.2991,"la2":30.254,"lo1":-89.0895,"lo2":-89.0444,"dy":0.0017,"dx":0.0017,"nx":28,"ny":28,"refTime":"2025-03-28T21:00:00:Z","depth":"2","parameterNumber":3,"parameterNumberName":"V-component_of_CURRENTS"},"data":[0,0,0,0,0,0,0,0,0,0,0,0,0,0,0,0,0,0,0,0,0,0,0,0,0,0,0,0,0,0,0,0,0,0,0,0,0,0,0,0,0,0,0,0,0,0,0,0,0,0,0,0,0,0,0,0,0,0,-0.0218,-0.0218,0,-0.0272,-0.0273,-0.0275,-0.0318,-0.0318,-0.0318,-0.0318,-0.0383,-0.0385,-0.0386,0,0,0,0,0,0,0,0,0,0,0,0,0,-0.0184,-0.0185,-0.0218,-0.0218,-0.0218,-0.0272,-0.0274,-0.0275,-0.0318,-0.0318,-0.0318,-0.0318,-0.0382,-0.0384,-0.0387,0,0,0,0,0,0,0,0,0,0,0,0,0,-0.0219,-0.0185,-0.0218,-0.0243,-0.0245,-0.0272,-0.0274,-0.0275,-0.0318,-0.0318,-0.0318,-0.0318,-0.0382,-0.0384,-0.0387,-0.0404,0,0,-0.0395,-0.0396,0,0,0,0,0,0,0,0,-0.0217,-0.0221,-0.0239,-0.0241,-0.0244,-0.0284,-0.0285,-0.0317,-0.0318,-0.0296,-0.0318,-0.0318,-0.0347,-0.0353,-0.037,-0.0407,-0.041,-0.0395,-0.0397,-0.0398,-0.0399,0,0,0,0,0,0,0,-0.0215,-0.0219,-0.0245,-0.0239,-0.0242,-0.0262,-0.0267,-0.0292,-0.0325,-0.0298,-0.03,-0.0298,-0.035,-0.0368,-0.0372,-0.0411,-0.0395,-0.0397,-0.0399,-0.04,-0.0453,-0.0453,0,0,0,0,0,0,-0.0196,-0.0217,-0.0243,-0.0246,-0.0224,-0.0262,-0.0268,-0.0275,-0.0325,-0.0331,-0.0298,-0.03,-0.0363,-0.0369,-0.0375,-0.0386,-0.0398,-0.04,-0.0402,-0.0453,-0.0453,-0.0453,0,0,0,0,0,0,-0.0195,-0.0198,-0.0241,-0.0228,-0.0234,-0.0262,-0.027,-0.0276,-0.0282,-0.0324,-0.0331,-0.0294,-0.0364,-0.0371,-0.0389,-0.0389,-0.0401,-0.0404,-0.0453,-0.0453,-0.0453,-0.0417,0,0,0,0,0,0,-0.0194,-0.0198,-0.0195,-0.0227,-0.0234,-0.0241,-0.027,-0.0277,-0.0279,-0.0281,-0.0323,-0.033,-0.0364,-0.0385,-0.0392,-0.0393,-0.0406,-0.0453,-0.0453,-0.0453,-0.0418,-0.0415,-0.0413,0,0,0,0,0,-0.0193,-0.0182,-0.0195,-0.0198,-0.023,-0.024,-0.0246,-0.0269,-0.0278,-0.0276,-0.0308,-0.0328,-0.0388,-0.0387,-0.0395,-0.0397,-0.0454,-0.0453,-0.0453,-0.0419,-0.0416,-0.0413,0,0,0,0,0,0,-0.0158,-0.0186,-0.0201,-0.0198,-0.0211,-0.0245,-0.0241,-0.0257,-0.0282,-0.0284,-0.0327,-0.0336,-0.0354,-0.0376,-0.0374,-0.0411,-0.0424,-0.0425,-0.0395,-0.0392,-0.039,-0.0368,-0.0408,0,0,0,0,0,-0.015,-0.0154,-0.018,-0.0175,-0.0179,-0.0209,-0.0214,-0.023,-0.0254,-0.0265,-0.0295,-0.0329,-0.0361,-0.0375,-0.0405,-0.0421,-0.0422,-0.0427,-0.0425,-0.0422,-0.0409,-0.0406,-0.0401,-0.0451,-0.0451,-0.0451,0,0,-0.0136,-0.0148,-0.0152,-0.0168,-0.0183,-0.019,-0.0213,-0.0213,-0.0223,-0.0267,-0.0287,-0.0318,-0.0363,-0.0388,-0.0397,-0.0404,-0.041,-0.0422,-0.042,-0.0408,-0.0405,-0.04,-0.0395,-0.0451,-0.0451,-0.0451,0,0,-0.0106,-0.0119,-0.0116,-0.0127,-0.0139,-0.016,-0.0153,-0.0182,-0.0198,-0.0218,-0.0257,-0.0282,-0.0328,-0.0363,-0.0388,-0.0384,-0.0395,-0.0393,-0.0364,-0.0361,-0.0356,-0.0352,-0.0349,-0.0345,-0.0393,-0.0392,-0.0392,0,-0.0087,-0.0089,-0.0112,-0.0112,-0.0116,-0.0142,-0.0139,-0.0162,-0.0193,-0.0202,-0.0215,-0.028,-0.0319,-0.0352,-0.0358,-0.0378,-0.0372,-0.0374,-0.0356,-0.0352,-0.0348,-0.0346,-0.0342,-0.0391,-0.0391,-0.0391,-0.0391,0,-0.0064,-0.0065,-0.0057,-0.0076,-0.0083,-0.0077,-0.011,-0.0121,-0.014,-0.0164,-0.0189,-0.0242,-0.0274,-0.0299,-0.0332,-0.0333,-0.0335,-0.0351,-0.036,-0.0341,-0.034,-0.0337,-0.0388,-0.0389,-0.0389,-0.039,0,0,-0.0024,-0.004,-0.0037,-0.004,-0.0061,-0.0063,-0.0079,-0.0097,-0.0094,-0.0134,-0.0132,-0.0203,-0.0216,-0.0243,-0.0284,-0.029,-0.0274,-0.0304,-0.0305,-0.0294,-0.0255,-0.0297,-0.0298,-0.0279,-0.0278,-0.0277,-0.0265,0,0.0003,0.0014,-0.0005,0.0004,0.0006,-0.0025,-0.0035,-0.0057,-0.0073,-0.0078,-0.013,-0.0145,-0.02,-0.0206,-0.0222,-0.0261,-0.0262,-0.0275,-0.0281,-0.0281,-0.0316,-0.0294,-0.028,-0.0271,-0.0262,-0.0262,-0.0261,0,0.0033,0.0036,0.005,0.0042,0.0041,0.004,0.0034,0.0023,0.0001,-0.001,-0.0031,-0.0061,-0.0094,-0.0129,-0.0175,-0.0176,-0.0204,-0.0234,-0.0234,-0.028,-0.0317,-0.029,-0.0265,-0.0255,-0.0256,-0.0256,-0.0257,0,0.0075,0.0075,0.0091,0.0087,0.0071,0.0074,0.0068,0.0051,0.006,0.0048,0.0064,0.0015,0.0008,-0.004,-0.0115,-0.0132,-0.0149,-0.0184,-0.0247,-0.025,-0.0244,-0.0248,-0.0191,-0.0191,-0.0191,-0.0191,-0.0191,0,0.0111,0.0124,0.0115,0.0123,0.0146,0.012,0.0149,0.0133,0.0141,0.0176,0.0115,0.014,0.0038,0.0007,-0.007,-0.0147,-0.0114,-0.023,-0.0246,-0.0233,-0.0237,-0.0229,-0.0234,-0.019,-0.019,-0.019,-0.0191,0,0.0151,0.0146,0.0163,0.0161,0.0166,0.0184,0.0204,0.0228,0.0226,0.0276,0.0281,0.0247,0.0208,0.01,0.0025,-0.0084,-0.016,-0.0189,-0.0172,-0.0188,-0.0274,-0.0277,-0.0262,-0.0263,-0.0264,-0.0265,-0.0266,0,0.017,0.0185,0.0199,0.022,0.0223,0.0249,0.0271,0.0272,0.0311,0.0351,0.0388,0.0365,0.0377,0.0226,0.0035,-0.011,-0.0129,-0.0218,-0.0265,-0.0262,-0.0279,-0.0281,-0.0282,-0.0237,-0.0238,-0.0238,-0.0238,0,0.0207,0.0214,0.0228,0.027,0.0301,0.0339,0.038,0.0428,0.0452,0.0519,0.0608,0.063,0.0467,0.0317,0.0069,-0.0046,-0.0206,-0.0233,-0.0208,-0.0236,-0.0242,-0.0258,-0.0259,-0.0242,-0.0241,-0.0241,-0.0241,-0.0241,0.0234,0.0256,0.0279,0.0318,0.0362,0.0433,0.0494,0.0569,0.0672,0.0788,0.0779,0.082,0.0588,0.029,0.006,-0.0211,-0.0202,-0.03,-0.0297,-0.0294,-0.0307,-0.0317,-0.0332,-0.0333,-0.0333,-0.0333,-0.0333,0,0.0257,0.0285,0.0326,0.0378,0.0437,0.0459,0.0568,0.0658,0.0825,0.091,0.1006,0.0817,0.0623,0.0359,-0.0043,-0.0287,-0.0303,-0.0363,-0.0323,-0.0318,-0.0314,-0.0328,-0.0359,-0.036,-0.0361,-0.0361,0,0,0.0272,0.0308,0.0327,0.0424,0.0482,0.0597,0.068,0.0841,0.0939,0.1065,0.1085,0.1057,0.0718,0.0427,0.0098,-0.0126,-0.0168,-0.0177,-0.0132,-0.0043,-0.0036,-0.0258,-0.0272,0,0,0,0,0]}],[{"header":{"parameterUnit":"m.s-1","parameterCategory":2,"la1":30.2991,"la2":30.254,"lo1":-89.0895,"lo2":-89.0444,"dy":0.0017,"dx":0.0017,"nx":28,"ny":28,"refTime":"2025-03-28T21:00:00:Z","depth":"4","parameterNumber":2,"parameterNumberName":"U-component_of_CURRENTS"},"data":[0,0,0,0,0,0,0,0,0,0,0,0,0,0,0,0,0,0,0,0,0,0,0,0,0,0,0,0,0,0,0,0,0,0,0,0,0,0,0,0,0,0,0,0,0,0,0,0,0,0,0,0,0,0,0,0,0,0,0.0899,0.0899,0,0.0925,0.0926,0.0927,0.1005,0.1006,0.1007,0.1008,0.1094,0.1096,0.1097,0,0,0,0,0,0,0,0,0,0,0,0,0,0.0887,0.0887,0.0899,0.0899,0.0899,0.0925,0.0926,0.0927,0.1005,0.1006,0.1007,0.1009,0.1094,0.1095,0.1097,0,0,0,0,0,0,0,0,0,0,0,0,0,0.0907,0.0887,0.0899,0.0936,0.0939,0.0925,0.0926,0.0927,0.1004,0.1006,0.1008,0.1009,0.1094,0.1095,0.1097,0.1076,0,0,0.1103,0.1104,0,0,0,0,0,0,0,0,0.0905,0.0908,0.0931,0.0933,0.0937,0.0958,0.0953,0.0978,0.1004,0.0986,0.1008,0.101,0.1049,0.1054,0.1064,0.108,0.1083,0.1103,0.1104,0.1105,0.1106,0,0,0,0,0,0,0,0.0904,0.0907,0.0916,0.093,0.0934,0.094,0.0946,0.0958,0.1014,0.0988,0.0992,0.0984,0.1052,0.1062,0.1067,0.1085,0.1103,0.1105,0.1106,0.1107,0.1186,0.1187,0,0,0,0,0,0,0.0887,0.0906,0.0915,0.0916,0.0917,0.0938,0.0945,0.0955,0.1013,0.1021,0.0982,0.0987,0.1058,0.1064,0.107,0.1139,0.1105,0.1107,0.1108,0.1185,0.1186,0.1187,0,0,0,0,0,0,0.0887,0.0889,0.0914,0.0905,0.0908,0.0936,0.0947,0.0954,0.0979,0.1007,0.1018,0.1,0.106,0.1067,0.1105,0.114,0.1108,0.1109,0.1184,0.1185,0.1187,0.1219,0,0,0,0,0,0,0.0887,0.0889,0.0908,0.0905,0.0908,0.09,0.0944,0.0953,0.0967,0.0974,0.1025,0.1034,0.1061,0.1102,0.1107,0.1142,0.1111,0.1183,0.1184,0.1186,0.1217,0.1221,0.1225,0,0,0,0,0,0.0887,0.0882,0.0909,0.0911,0.0928,0.0898,0.0901,0.093,0.0966,0.0963,0.1019,0.1033,0.1118,0.1104,0.111,0.1146,0.1182,0.1184,0.1186,0.1215,0.1221,0.1225,0,0,0,0,0,0,0.0899,0.0889,0.0919,0.0919,0.0912,0.0909,0.0912,0.093,0.097,0.1,0.1037,0.1048,0.1097,0.1108,0.1092,0.1174,0.1155,0.1158,0.1175,0.118,0.1185,0.1253,0.1113,0,0,0,0,0,0.0907,0.0887,0.0894,0.0888,0.0895,0.091,0.0911,0.093,0.0951,0.0973,0.1004,0.1055,0.1105,0.1132,0.1161,0.1195,0.121,0.1225,0.1229,0.1233,0.1292,0.1296,0.1306,0.1194,0.1194,0.1194,0,0,0.0916,0.0895,0.0897,0.0886,0.0896,0.0903,0.0917,0.0915,0.0943,0.0974,0.1027,0.1062,0.1115,0.1168,0.1191,0.1186,0.1269,0.1235,0.1238,0.1298,0.1299,0.131,0.132,0.1196,0.1196,0.1195,0,0,0.0885,0.0907,0.0889,0.0882,0.0878,0.0893,0.0892,0.0905,0.0944,0.0979,0.1032,0.1107,0.1133,0.1215,0.1254,0.1299,0.1284,0.1279,0.1368,0.1368,0.1378,0.1387,0.1405,0.1415,0.1288,0.1288,0.1288,0,0.0904,0.0884,0.0877,0.0858,0.0871,0.0891,0.0907,0.0932,0.0956,0.1009,0.1001,0.1138,0.1181,0.1305,0.1341,0.1318,0.1301,0.1341,0.1375,0.1384,0.1393,0.1409,0.142,0.129,0.129,0.129,0.129,0,0.0867,0.0864,0.0847,0.0846,0.0863,0.0859,0.0907,0.0944,0.0993,0.1033,0.1146,0.1214,0.1321,0.1326,0.1363,0.146,0.142,0.1368,0.1362,0.1406,0.142,0.1431,0.1293,0.1292,0.1291,0.1291,0,0,0.0881,0.0836,0.0835,0.0839,0.0866,0.0866,0.0943,0.1018,0.1079,0.114,0.1235,0.1371,0.1433,0.1488,0.153,0.1555,0.1609,0.15,0.1499,0.1523,0.1605,0.1524,0.1528,0.1525,0.1528,0.153,0.1585,0,0.0868,0.0821,0.0826,0.0832,0.0838,0.0903,0.0958,0.1039,0.1115,0.1195,0.1331,0.1434,0.1481,0.1553,0.1594,0.159,0.1641,0.1601,0.156,0.1561,0.1485,0.154,0.1537,0.1593,0.1595,0.1597,0.1599,0,0.0847,0.0816,0.0821,0.0832,0.0851,0.09,0.1029,0.108,0.1221,0.128,0.1438,0.1507,0.1666,0.1647,0.1737,0.1688,0.1698,0.1679,0.1678,0.1616,0.1502,0.1544,0.1618,0.1617,0.1615,0.1614,0.1613,0,0.0822,0.0817,0.0821,0.0824,0.0855,0.0942,0.102,0.1153,0.1198,0.1394,0.1455,0.16,0.1703,0.1723,0.1768,0.1739,0.1783,0.1723,0.1679,0.1672,0.1713,0.1703,0.1805,0.1805,0.1805,0.1805,0.1804,0,0.0778,0.078,0.0834,0.0812,0.0884,0.0965,0.1061,0.1158,0.1285,0.1333,0.1544,0.1601,0.1717,0.1761,0.1768,0.1765,0.1802,0.1742,0.1693,0.1721,0.1712,0.1719,0.1708,0.1807,0.1806,0.1806,0.1805,0,0.0723,0.074,0.073,0.0799,0.0852,0.0934,0.1061,0.1102,0.1282,0.1365,0.1445,0.1607,0.1695,0.1781,0.1802,0.1777,0.1764,0.1761,0.1823,0.1767,0.1657,0.1648,0.1722,0.172,0.1718,0.1717,0.1715,0,0.0691,0.0673,0.0696,0.0737,0.0795,0.0918,0.0969,0.1103,0.1149,0.1329,0.1352,0.1526,0.1627,0.1628,0.1701,0.1753,0.1747,0.1748,0.1718,0.1711,0.1655,0.1648,0.1642,0.1713,0.1712,0.1712,0.1711,0,0.0623,0.0621,0.059,0.0644,0.0728,0.0767,0.0894,0.089,0.103,0.1177,0.1262,0.137,0.1476,0.1546,0.1636,0.1644,0.1735,0.1729,0.1733,0.1705,0.17,0.1645,0.164,0.1705,0.1706,0.1706,0.1707,0,0.0584,0.0544,0.0494,0.0557,0.0623,0.0646,0.0701,0.078,0.0828,0.1053,0.1035,0.1253,0.139,0.1488,0.1516,0.1581,0.158,0.1537,0.1551,0.1559,0.149,0.1459,0.1384,0,0,0,0,0,0.0539,0.0451,0.0443,0.0463,0.0509,0.0559,0.0642,0.0695,0.0815,0.0842,0.0952,0.1058,0.1209,0.1299,0.1346,0.1456,0.1571,0.1503,0.1521,0.167,0.1677,0.1617,0,0,0,0,0,0,0.051,0.0431,0.0372,0.0366,0.0392,0.0426,0.0469,0.0552,0.0593,0.0749,0.0839,0.1004,0.1163,0.1185,0.1329,0.1364,0.1357,0.1634,0.1632,0.1666,0.1673,0.1678,0.1619,0,0,0,0,0]},{"header":{"parameterUnit":"m.s-1","parameterCategory":2,"la1":30.2991,"la2":30.254,"lo1":-89.0895,"lo2":-89.0444,"dy":0.0017,"dx":0.0017,"nx":28,"ny":28,"refTime":"2025-03-28T21:00:00:Z","depth":"4","parameterNumber":3,"parameterNumberName":"V-component_of_CURRENTS"},"data":[0,0,0,0,0,0,0,0,0,0,0,0,0,0,0,0,0,0,0,0,0,0,0,0,0,0,0,0,0,0,0,0,0,0,0,0,0,0,0,0,0,0,0,0,0,0,0,0,0,0,0,0,0,0,0,0,0,0,-0.0284,-0.0285,0,-0.0307,-0.0307,-0.0307,-0.0346,-0.0346,-0.0347,-0.0348,-0.0382,-0.0382,-0.0382,0,0,0,0,0,0,0,0,0,0,0,0,0,-0.0226,-0.0227,-0.0284,-0.0285,-0.0285,-0.0307,-0.0307,-0.0307,-0.0345,-0.0346,-0.0348,-0.0348,-0.0382,-0.0382,-0.0382,0,0,0,0,0,0,0,0,0,0,0,0,0,-0.0249,-0.0228,-0.0284,-0.0308,-0.0311,-0.0307,-0.0307,-0.0307,-0.0345,-0.0346,-0.0348,-0.0349,-0.0382,-0.0382,-0.0382,-0.0357,0,0,-0.0383,-0.0383,0,0,0,0,0,0,0,0,-0.0248,-0.0251,-0.0304,-0.0306,-0.0309,-0.0326,-0.0299,-0.0325,-0.0345,-0.033,-0.0348,-0.035,-0.0364,-0.0366,-0.0365,-0.0359,-0.036,-0.0383,-0.0383,-0.0383,-0.0383,0,0,0,0,0,0,0,-0.0246,-0.025,-0.0292,-0.0305,-0.0308,-0.0301,-0.0306,-0.0304,-0.0339,-0.0332,-0.0335,-0.034,-0.0366,-0.0365,-0.0366,-0.0361,-0.0383,-0.0383,-0.0383,-0.0383,-0.033,-0.0329,0,0,0,0,0,0,-0.0248,-0.0249,-0.0291,-0.0293,-0.0283,-0.0301,-0.0307,-0.0318,-0.0339,-0.0344,-0.0338,-0.0341,-0.0364,-0.0366,-0.0368,-0.0315,-0.0383,-0.0383,-0.0383,-0.0332,-0.033,-0.0328,0,0,0,0,0,0,-0.0247,-0.0252,-0.029,-0.0272,-0.0277,-0.0302,-0.0313,-0.0318,-0.0325,-0.0344,-0.0349,-0.0343,-0.0365,-0.0367,-0.0363,-0.0318,-0.0383,-0.0383,-0.0333,-0.0331,-0.0329,-0.0226,0,0,0,0,0,0,-0.0245,-0.0251,-0.0255,-0.0272,-0.0278,-0.027,-0.0313,-0.0317,-0.0327,-0.0331,-0.0349,-0.0353,-0.0366,-0.0362,-0.0363,-0.0319,-0.0383,-0.0335,-0.0332,-0.033,-0.0231,-0.022,-0.0211,0,0,0,0,0,-0.0243,-0.0235,-0.0255,-0.026,-0.0284,-0.0269,-0.0269,-0.0291,-0.0325,-0.0307,-0.0332,-0.0353,-0.0345,-0.0361,-0.0362,-0.0318,-0.0337,-0.0333,-0.033,-0.0235,-0.0222,-0.0211,0,0,0,0,0,0,-0.0203,-0.0239,-0.0261,-0.0264,-0.0262,-0.0276,-0.0269,-0.029,-0.0295,-0.031,-0.0337,-0.0341,-0.0321,-0.0336,-0.0354,-0.0295,-0.0342,-0.0339,-0.027,-0.0258,-0.0248,-0.0287,-0.0383,0,0,0,0,0,-0.0199,-0.0205,-0.0229,-0.0224,-0.0231,-0.0253,-0.0254,-0.0267,-0.0278,-0.0283,-0.0294,-0.0307,-0.0304,-0.0297,-0.03,-0.0266,-0.0312,-0.0238,-0.0228,-0.0219,-0.0251,-0.027,-0.0265,-0.0317,-0.0317,-0.0317,0,0,-0.0184,-0.02,-0.0206,-0.0216,-0.0226,-0.0195,-0.0256,-0.025,-0.0214,-0.0284,-0.0245,-0.0276,-0.0291,-0.0254,-0.0245,-0.0262,-0.0223,-0.0215,-0.0207,-0.0245,-0.0266,-0.0261,-0.0257,-0.0315,-0.0315,-0.0316,0,0,-0.0133,-0.0171,-0.0155,-0.0143,-0.0151,-0.0158,-0.0156,-0.0168,-0.017,-0.0142,-0.0185,-0.02,-0.0179,-0.0185,-0.0185,-0.0123,-0.0176,-0.0113,-0.0083,-0.0097,-0.0094,-0.0092,-0.0122,-0.0123,-0.0098,-0.0098,-0.0098,0,-0.011,-0.0092,-0.014,-0.0102,-0.0082,-0.0136,-0.0089,-0.0084,-0.0085,-0.009,-0.0114,-0.0133,-0.0143,-0.0122,-0.0108,-0.0099,-0.0135,-0.0121,-0.0085,-0.0084,-0.0084,-0.0116,-0.0119,-0.0093,-0.0093,-0.0094,-0.0094,0,-0.0044,-0.0014,0.0003,0.0028,0.0045,0.0078,0.0072,0.0079,0.0056,0.0046,0.0039,0.0003,-0.0027,-0.0007,-0.0043,-0.0036,-0.007,-0.0076,-0.0118,-0.0072,-0.0109,-0.0113,-0.0085,-0.0087,-0.0088,-0.009,0,0,-0.0024,0.0036,0.0046,0.0082,0.0116,0.0131,0.0184,0.0201,0.0204,0.019,0.0191,0.0175,0.0089,0.0077,0.0032,0.0017,0.0003,-0.0036,-0.0039,-0.0071,-0.0053,-0.0057,-0.0063,0.0,-0.0001,-0.0001,-0.0072,0,0.0048,0.0151,0.0157,0.0257,0.0306,0.0287,0.0334,0.0337,0.0321,0.0311,0.0244,0.0222,0.0148,0.0109,0.008,0.001,-0.001,0.0021,-0.0092,-0.0096,-0.0107,-0.0068,-0.0003,-0.0077,-0.0078,-0.0079,-0.0079,0,0.0104,0.0178,0.0289,0.036,0.0369,0.0413,0.0433,0.047,0.0442,0.0415,0.0354,0.028,0.0216,0.0158,0.0046,0.0062,-0.0007,-0.0051,-0.0054,-0.011,-0.0109,-0.0138,-0.0089,-0.0088,-0.0088,-0.0087,-0.0086,0,0.0135,0.0253,0.0345,0.0381,0.0457,0.0477,0.0496,0.0493,0.0508,0.0459,0.044,0.034,0.0283,0.0182,0.0045,0.004,-0.0068,-0.0068,-0.0132,-0.0133,-0.0157,-0.016,-0.0139,-0.0139,-0.0139,-0.0139,-0.0139,0,0.0196,0.0265,0.0362,0.0415,0.0489,0.0516,0.0554,0.0549,0.0548,0.0554,0.0468,0.0429,0.0281,0.019,0.0069,-0.006,-0.0053,-0.0144,-0.0152,-0.0108,-0.0104,-0.016,-0.0161,-0.0141,-0.0141,-0.014,-0.014,0,0.0198,0.0272,0.0382,0.0485,0.0507,0.0551,0.0596,0.0614,0.0607,0.0613,0.0592,0.0495,0.0364,0.023,0.0074,-0.0017,-0.0135,-0.0177,-0.0133,-0.0135,-0.0198,-0.0193,-0.0255,-0.0255,-0.0256,-0.0256,-0.0257,0,0.0207,0.0271,0.0417,0.0474,0.0516,0.0581,0.0612,0.0632,0.0657,0.064,0.064,0.0531,0.0441,0.0225,0.0076,-0.0125,-0.0153,-0.0214,-0.0211,-0.0209,-0.021,-0.0204,-0.0199,-0.0258,-0.0258,-0.0258,-0.0258,0,0.0228,0.0278,0.0372,0.049,0.0551,0.0619,0.067,0.0689,0.0704,0.0715,0.0658,0.0534,0.0405,0.0219,0.0071,-0.0077,-0.0175,-0.0221,-0.0221,-0.0219,-0.0213,-0.0213,-0.0207,-0.026,-0.026,-0.026,-0.026,0,0.023,0.0299,0.0411,0.05,0.058,0.0628,0.0658,0.0682,0.0704,0.0702,0.0673,0.0531,0.0455,0.0243,0.0097,-0.0039,-0.0077,-0.0124,-0.0129,-0.0128,-0.0073,-0.0046,-0.0056,0,0,0,0,0,0.0238,0.0306,0.0402,0.051,0.0575,0.0614,0.0683,0.0708,0.0733,0.0701,0.0694,0.0566,0.035,0.0254,0.0116,0.0073,-0.0108,-0.0093,-0.0166,-0.0272,-0.027,-0.0226,0,0,0,0,0,0,0.0255,0.0339,0.0403,0.0475,0.0533,0.0599,0.0642,0.0664,0.0654,0.0664,0.0553,0.0527,0.0318,0.0425,0.0109,0.0069,0.0003,-0.0181,-0.0184,-0.0273,-0.0271,-0.0269,-0.0224,0,0,0,0,0]}]]